• en France
  • Liste des pays
  • À 7 jours
  • Température de l'eau
  • Carte satellitaire
  • Carte météo
  • Widgets météo
  • user-avatar
    Se connecter

    Météo par heure à Ngo

    Ce jour, 14 Décembre, Jeudi

    Heure Température Précipitation Vent Pression Humidité
    00:00 +25°C° 0 mm 1 m/s 709 mmHg 79%
    01:00 +24°C° 0 mm 2 m/s 709 mmHg 83%
    02:00 +24°C° 0,1 mm 2 m/s 709 mmHg 84%
    03:00 +24°C° 0,1 mm 2 m/s 709 mmHg 85%
    04:00 +24°C° 0,1 mm 2 m/s 709 mmHg 87%
    05:00 +24°C° 0,9 mm 2 m/s 709 mmHg 88%
    06:00 +24°C° 0,9 mm 2 m/s 710 mmHg 89%
    07:00 +24°C° 0 mm 2 m/s 710 mmHg 92%
    08:00 +24°C° 1,5 mm 2 m/s 710 mmHg 90%
    09:00 +25°C° 1,5 mm 2 m/s 710 mmHg 89%
    10:00 +25°C° 1,5 mm 2 m/s 710 mmHg 88%
    11:00 +26°C° 0,3 mm 2 m/s 710 mmHg 83%
    12:00 +27°C° 0,3 mm 2 m/s 710 mmHg 79%
    13:00 +28°C° 0,3 mm 2 m/s 709 mmHg 74%
    14:00 +28°C° 0,4 mm 2 m/s 709 mmHg 73%
    15:00 +28°C° 0,4 mm 2 m/s 709 mmHg 72%
    16:00 +29°C° 0,4 mm 1 m/s 708 mmHg 71%
    17:00 +27°C° 0,3 mm 1 m/s 708 mmHg 76%
    18:00 +26°C° 0,3 mm 1 m/s 708 mmHg 82%
    19:00 +25°C° 0,3 mm 1 m/s 709 mmHg 87%
    20:00 +24°C° 0 mm 1 m/s 709 mmHg 88%
    21:00 +24°C° 0 mm 1 m/s 709 mmHg 89%
    22:00 +24°C° 0 mm 1 m/s 710 mmHg 90%
    23:00 +23°C° 0 mm 1 m/s 709 mmHg 90%

    Demain, 15 Décembre, Vendredi

    Heure Température Précipitation Vent Pression Humidité
    00:00 +23°C° 0 mm 1 m/s 709 mmHg 90%
    01:00 +23°C° 0 mm 1 m/s 709 mmHg 90%
    02:00 +23°C° 0 mm 1 m/s 708 mmHg 90%
    03:00 +23°C° 0 mm 1 m/s 708 mmHg 90%
    04:00 +22°C° 0 mm 1 m/s 708 mmHg 90%
    05:00 +23°C° 0 mm 2 m/s 708 mmHg 88%
    06:00 +23°C° 0 mm 2 m/s 709 mmHg 87%
    07:00 +24°C° 0 mm 2 m/s 709 mmHg 85%
    08:00 +25°C° 0 mm 2 m/s 709 mmHg 78%
    09:00 +27°C° 0 mm 2 m/s 710 mmHg 70%
    10:00 +29°C° 0 mm 2 m/s 710 mmHg 63%
    11:00 +31°C° 0 mm 1 m/s 709 mmHg 58%
    12:00 +32°C° 0 mm 1 m/s 709 mmHg 53%
    13:00 +34°C° 0 mm 1 m/s 708 mmHg 48%
    14:00 +33°C° 0 mm 1 m/s 708 mmHg 48%
    15:00 +33°C° 0 mm 1 m/s 707 mmHg 48%
    16:00 +33°C° 0 mm 1 m/s 706 mmHg 48%
    17:00 +31°C° 0 mm 1 m/s 707 mmHg 55%
    18:00 +29°C° 0 mm 1 m/s 707 mmHg 61%
    19:00 +27°C° 0 mm 1 m/s 707 mmHg 67%
    20:00 +27°C° 0,1 mm 1 m/s 708 mmHg 70%
    21:00 +26°C° 0,1 mm 1 m/s 708 mmHg 73%
    22:00 +26°C° 0,1 mm 2 m/s 709 mmHg 75%
    23:00 +25°C° 0,2 mm 2 m/s 708 mmHg 78%

    Après-demain, 16 Décembre, Samedi

    Heure Température Précipitation Vent Pression Humidité
    00:00 +25°C° 0,2 mm 2 m/s 708 mmHg 81%
    01:00 +25°C° 0,2 mm 2 m/s 708 mmHg 84%
    02:00 +24°C° 0,1 mm 2 m/s 708 mmHg 86%
    03:00 +24°C° 0,1 mm 2 m/s 708 mmHg 87%
    04:00 +24°C° 0,1 mm 3 m/s 707 mmHg 89%
    05:00 +24°C° 0 mm 3 m/s 708 mmHg 88%
    06:00 +24°C° 0 mm 3 m/s 708 mmHg 86%
    07:00 +24°C° 0 mm 3 m/s 709 mmHg 85%
    08:00 +26°C° 0,1 mm 3 m/s 709 mmHg 78%
    09:00 +28°C° 0,1 mm 3 m/s 710 mmHg 71%
    10:00 +30°C° 0,1 mm 3 m/s 710 mmHg 64%
    11:00 +30°C° 0,5 mm 3 m/s 710 mmHg 62%
    12:00 +31°C° 0,5 mm 3 m/s 709 mmHg 61%
    13:00 +31°C° 0,5 mm 2 m/s 708 mmHg 60%
    14:00 +31°C° 0,3 mm 2 m/s 708 mmHg 62%
    15:00 +31°C° 0,3 mm 2 m/s 707 mmHg 64%
    16:00 +30°C° 0,3 mm 2 m/s 706 mmHg 67%
    17:00 +29°C° 0,4 mm 2 m/s 707 mmHg 73%
    18:00 +27°C° 0,4 mm 2 m/s 707 mmHg 80%
    19:00 +25°C° 0,4 mm 2 m/s 708 mmHg 86%
    20:00 +25°C° 0,3 mm 2 m/s 708 mmHg 87%
    21:00 +25°C° 0,3 mm 2 m/s 709 mmHg 88%
    22:00 +25°C° 0,3 mm 2 m/s 709 mmHg 89%
    23:00 +24°C° 0 mm 2 m/s 709 mmHg 89%

    17 Décembre, Dimanche

    Heure Température Précipitation Vent Pression Humidité
    00:00 +24°C° 0 mm 2 m/s 708 mmHg 90%
    01:00 +24°C° 0 mm 2 m/s 708 mmHg 90%
    02:00 +24°C° 0 mm 2 m/s 708 mmHg 91%
    03:00 +23°C° 0 mm 2 m/s 708 mmHg 91%
    04:00 +23°C° 0 mm 2 m/s 708 mmHg 92%
    05:00 +24°C° 0,6 mm 2 m/s 708 mmHg 91%
    06:00 +24°C° 0,6 mm 2 m/s 709 mmHg 89%
    07:00 +24°C° 0,6 mm 2 m/s 709 mmHg 88%
    08:00 +26°C° 0,8 mm 2 m/s 710 mmHg 83%
    09:00 +27°C° 0,8 mm 2 m/s 710 mmHg 78%
    10:00 +28°C° 0,8 mm 3 m/s 710 mmHg 73%
    11:00 +28°C° 1,1 mm 2 m/s 710 mmHg 72%
    12:00 +29°C° 1,1 mm 2 m/s 709 mmHg 71%
    13:00 +29°C° 1,1 mm 2 m/s 709 mmHg 70%
    14:00 +29°C° 0,1 mm 2 m/s 708 mmHg 67%
    15:00 +29°C° 0,1 mm 2 m/s 708 mmHg 65%
    16:00 +30°C° 0,1 mm 2 m/s 707 mmHg 63%
    17:00 +28°C° 0 mm 2 m/s 707 mmHg 68%
    18:00 +27°C° 0 mm 1 m/s 708 mmHg 74%
    19:00 +26°C° 0 mm 1 m/s 708 mmHg 80%
    20:00 +25°C° 0 mm 1 m/s 709 mmHg 81%
    21:00 +25°C° 0 mm 1 m/s 709 mmHg 83%
    22:00 +24°C° 0 mm 1 m/s 710 mmHg 85%
    23:00 +24°C° 0 mm 1 m/s 709 mmHg 86%

    18 Décembre, Lundi

    Heure Température Précipitation Vent Pression Humidité
    00:00 +24°C° 0 mm 1 m/s 709 mmHg 87%
    01:00 +23°C° 0 mm 1 m/s 709 mmHg 88%
    02:00 +23°C° 0 mm 1 m/s 709 mmHg 88%
    03:00 +23°C° 0 mm 1 m/s 708 mmHg 88%
    04:00 +23°C° 0 mm 1 m/s 708 mmHg 89%
    05:00 +23°C° 0 mm 2 m/s 709 mmHg 88%
    06:00 +24°C° 0 mm 2 m/s 709 mmHg 87%
    07:00 +24°C° 0 mm 2 m/s 710 mmHg 86%
    08:00 +26°C° 0 mm 2 m/s 710 mmHg 80%
    09:00 +27°C° 0 mm 2 m/s 710 mmHg 74%
    10:00 +29°C° 0 mm 3 m/s 710 mmHg 69%
    11:00 +30°C° 0,1 mm 2 m/s 710 mmHg 63%
    12:00 +31°C° 0,1 mm 2 m/s 709 mmHg 58%
    13:00 +32°C° 0,1 mm 2 m/s 708 mmHg 53%
    14:00 +32°C° 0,1 mm 2 m/s 708 mmHg 54%
    15:00 +32°C° 0,1 mm 2 m/s 707 mmHg 55%
    16:00 +31°C° 0,1 mm 2 m/s 707 mmHg 56%
    17:00 +30°C° 0,5 mm 2 m/s 707 mmHg 65%
    18:00 +28°C° 0,5 mm 2 m/s 707 mmHg 73%
    19:00 +26°C° 0,5 mm 2 m/s 708 mmHg 81%
    20:00 +25°C° 0,2 mm 2 m/s 708 mmHg 83%
    21:00 +25°C° 0,2 mm 2 m/s 708 mmHg 84%
    22:00 +25°C° 0,2 mm 2 m/s 709 mmHg 86%
    23:00 +24°C° 0,2 mm 2 m/s 709 mmHg 86%

    19 Décembre, Mardi

    Heure Température Précipitation Vent Pression Humidité
    00:00 +24°C° 0,2 mm 2 m/s 708 mmHg 86%
    01:00 +24°C° 0,2 mm 2 m/s 708 mmHg 86%
    02:00 +24°C° 0,1 mm 2 m/s 708 mmHg 86%
    03:00 +24°C° 0,1 mm 2 m/s 708 mmHg 86%
    04:00 +24°C° 0,1 mm 2 m/s 708 mmHg 86%
    05:00 +24°C° 0,1 mm 2 m/s 709 mmHg 86%
    06:00 +24°C° 0,1 mm 2 m/s 709 mmHg 86%
    07:00 +24°C° 0,1 mm 2 m/s 710 mmHg 86%
    08:00 +26°C° 0,4 mm 2 m/s 710 mmHg 79%
    09:00 +28°C° 0,4 mm 2 m/s 710 mmHg 72%
    10:00 +29°C° 0,4 mm 2 m/s 710 mmHg 65%
    11:00 +30°C° 0,3 mm 2 m/s 710 mmHg 60%
    12:00 +31°C° 0,3 mm 2 m/s 709 mmHg 56%
    13:00 +33°C° 0,3 mm 1 m/s 709 mmHg 52%
    14:00 +32°C° 1 mm 1 m/s 708 mmHg 56%
    15:00 +31°C° 1 mm 1 m/s 708 mmHg 61%
    16:00 +30°C° 1 mm 1 m/s 707 mmHg 66%
    17:00 +28°C° 0,7 mm 2 m/s 707 mmHg 73%
    18:00 +26°C° 0,7 mm 2 m/s 708 mmHg 79%
    19:00 +25°C° 0,7 mm 2 m/s 708 mmHg 86%
    20:00 +24°C° 0 mm 2 m/s 708 mmHg 87%
    21:00 +24°C° 0 mm 2 m/s 708 mmHg 88%
    22:00 +24°C° 0 mm 1 m/s 709 mmHg 89%
    23:00 +23°C° 0,1 mm 1 m/s 709 mmHg 89%
    Voir plus